星链-36198(STARLINK-36198)

导读

STARLINK-36198是美国SpaceX星链星座的一员,于2025年12月17日发射入轨,属于星链低轨互联网卫星星座扩容任务的一部分。这类卫星部署于近地轨道,旨在为全球提供高速宽带互联网服务,尤其覆盖偏远、网络基础设施薄弱地区,进一步扩充星链星座的服务容量与覆盖范围。

基本信息
目录编号:
67167
目录名称:
STARLINK-36198
国际标识:
2025-303E
轨道中心:
EARTH
卫星名称:
星链-36198
卫星全名:
星链-36198(STARLINK-36198)
卫星状态:
在轨 (已飞行262 天)
发射日期:
2025-12-17 UTC
国别 :
美国 (US)
星等 :
--
轨道信息
数据来源 国际轨道数据
星历时间: 2026-09-05T17:21:40+0800
8小时前
查看轨道信息
半长轴: 6861.167km
偏心率: 0.0000424
轨道倾角: 42.998°
近地点辐角 306.107°
升交点赤经 16.241°
平近点角 53.974°
近地点: 482.739km
远地点: 483.321km
周期: 94.266分钟
每日圈数: 15.275864
详细信息
固有亮度:
5
最大亮度:
2.5
卫星平台:
Starlink V1.0
覆盖范围:
全球
运营商:
太空探索技术公司
运营商所在国:
美国
制造商(研发单位):
太空探索技术公司
制造商所在国:
美国
使用方式:
暂无
卫星简介
Starlink 计划是 SpaceX 推出的全球卫星互联网项目,通过发射低轨道卫星,为全球尤其是偏远地区提供高速、低延迟的互联网服务。自 2019 年起,Starlink 已部署数千颗卫星,旨在缩小全球数字鸿沟,推动互联网普及。该项目还为军事、航空等行业提供通信支持,带来广泛经济效益。
2D轨道图
3D轨道图
轨道高度分析图
轨道倾角分析图
轨道综合分析图
查看轨道综合分析图
交会数据列表
事件ID 空间交会对象 最接近时刻(TCA) 交会距离 交会风险概率(CRP) 交会风险指数(CRI) 操作
CDM_260907-133501-936206-716721
2026-09-07T
13:35:03+0000
1.174 km
极远距离
9.997243E-6 低风险 0.55
CDM_260831-085606-716706-727221
2026-08-31T
08:56:54+0000
1.388 km
极远距离
7.143897E-6 低风险 0.52
CDM_260906-060104-079706-716721
2026-09-06T
06:01:15+0000
1.521 km
极远距离
5.333913E-6 低风险 0.5
CDM_260907-100406-716706-887021
2026-09-07T
10:04:34+0000
2.814 km
极远距离
1.230188E-6 低风险 0.37